Flag for Australia Weather past 2 weeks in Alice Springs, Northern Territory, Australia

Now
59 °F

Sunny.


Feels Like: 57 °F
Forecast: 51 / 75 °F
Wind: 10 mph from East

Location: Alice Springs Aerodrome

Current Time: Sep 21, 2014 at 8:33:17 AM

Latest Report: Sep 21, 2014 at 8:00 AM


Visibility: 10 mi

Pressure: 30.27 "Hg

Humidity: 45%

Dew point: 37 °F

Location of Alice SpringsLocation

Historic Weather in Alice Springs — Graph

°F

Alice Springs temperature yesterday

Maximum temperature yesterday: 82 °F (at 5:00 PM)
Minimum temperature yesterday: 61 °F (at 6:30 AM)
Average temperature yesterday: 74 °F

Past Weeks' High & Low Weather Summary

 TemperatureHumidityPressure
High93 °F (Sep 8, 2:33 PM)67% (Sep 21, 4:30 AM)30.27 "Hg (Sep 21, 4:30 AM)
Low45 °F (Sep 13, 6:30 AM)5% (Sep 14, 2:30 PM)29.89 "Hg (Sep 8, 5:00 PM)
Average71 °F23%30.08 "Hg
* Reported Sep 6 7:30 AM — Sep 21 7:30 AM, Alice Springs, Weather by CustomWeather, © 2014

Note: Actual official high and low records may vary slightly from our data, if they occured in-between our weather recording intervals... More about our weather records

Advertising

Alice Springs weather history for previous 24 hours

 ConditionsComfort  
Time TempWeatherWind HumidityBarometerVisibility
7:30 AM
Sep 21
55 °FSunny.8 mph51%30.27 "Hg10 mi
7:00 AM52 °FSunny.7 mph58%30.24 "Hg10 mi
6:30 AM50 °FSunny.6 mph62%30.24 "Hg10 mi
5:30 AM52 °FClear.7 mph62%30.21 "HgN/A
5:00 AM52 °FClear.6 mph67%30.21 "HgN/A
4:30 AM52 °FClear.6 mph67%30.21 "HgN/A
4:00 AM54 °FClear.7 mph63%30.18 "HgN/A
3:30 AM54 °FClear.7 mph63%30.18 "HgN/A
10:30 PM
Sep 20
66 °FClear.15 mph40%30.21 "HgN/A
10:00 PM66 °FClear.14 mph35%30.18 "HgN/A
9:30 PM68 °FClear.16 mph30%30.18 "HgN/A
9:00 PM68 °FClear.18 mph30%30.18 "HgN/A
8:30 PM70 °FClear.15 mph27%30.18 "HgN/A
7:30 PM72 °FClear.22 mph22%30.12 "Hg6 mi
7:00 PM73 °FClear.20 mph16%30.09 "HgN/A
6:30 PM75 °FClear.21 mph13%30.07 "HgN/A
6:00 PM79 °FClear.18 mph11%30.07 "HgN/A
5:30 PM81 °FSunny.12 mph11%30.04 "Hg10 mi
5:00 PM82 °FSunny.13 mph10%30.04 "Hg10 mi
4:30 PM81 °FPassing clouds.10 mph12%30.04 "HgN/A
4:00 PM81 °FPassing clouds.9 mph12%30.04 "HgN/A
3:30 PM81 °FSunny.10 mph12%30.04 "Hg10 mi
3:00 PM81 °FSunny.13 mph12%30.04 "Hg10 mi
2:30 PM81 °FSunny.12 mph12%30.04 "Hg10 mi
2:00 PM81 °FDuststorm.14 mph13%30.07 "HgN/A
1:30 PM81 °FSunny.14 mph11%30.07 "Hg10 mi
1:00 PM79 °FSunny.16 mph12%30.07 "Hg10 mi
12:30 PM77 °FSunny.13 mph14%30.09 "Hg10 mi
12:00 PM79 °FDuststorm.16 mph12%30.09 "HgN/A
11:30 AM77 °FSunny.17 mph12%30.12 "Hg10 mi
10:30 AM73 °FSunny.18 mph14%30.12 "Hg10 mi
9:30 AM73 °FSunny.21 mph13%30.15 "Hg10 mi
9:00 AM72 °FSunny.21 mph14%30.15 "Hg10 mi
8:30 AM72 °FSunny.20 mph14%30.12 "Hg10 mi
8:00 AM70 °FPassing clouds.15 mph16%30.09 "HgN/A
Weather by CustomWeather, © 2014

See weather overviewHow to use our weather pages